Regional Weather Roundup
Issued by NWS

Home | Current Version | Previous Version | Graphics & Text | Print | Product List | Glossary On
Versions: 1 2 3 4 5 6 7 8 9 10 11 12 13 14 15 16 17 18 19 20 21 22 23 24 25 26 27 28 29 30 31 32 33 34 35 36 37 38 39 40 41 42 43 44 45 46 47 48 49 50
000
ASUS45 KSLC 252210
RWRUT

UTAH REGIONAL WEATHER ROUNDUP
NATIONAL WEATHER SERVICE SALT LAKE CITY UT
300 PM MST SAT FEB 25 2017

UTZ001>011-023>025-252300-

NORTHERN UTAH

CITY           SKY/WX    TMP DP  RH WIND       PRES   REMARKS
BRIGHAM CITY     N/A     32  21  63 SW10      30.02F WCI  24
HILL AFB       SUNNY     27  22  82 SW9       30.01S WCI  18
LOGAN          LGT SNOW  29  21  72 VRB3      30.01F
OGDEN          MOSUNNY   29  21  72 SW12      30.01F WCI  19
SALT LAKE CITY FLURRIES  34  16  47 CALM      30.02F
TOOELE VALLEY  CLOUDY    32  19  59 N15       30.02F WCI  22
WENDOVER       CLOUDY    37  12  35 E6        30.02F WCI  33
HEBER CITY     CLOUDY    27  14  59 CALM      29.96F
WEST JORDAN    CLOUDY    34  24  67 S3        30.02F

$$

UTZ011>015-024>027-252300-

CENTRAL/NORTHEAST UTAH

CITY           SKY/WX    TMP DP  RH WIND       PRES   REMARKS
PROVO AIRPORT  MOSUNNY   27  17  66 W3        30.04F
MOAB/CANYONLAN PTSUNNY   42   4  20 W13G23    29.93F
DELTA          CLOUDY    32  14  47 CALM      30.01F
PRICE          PTSUNNY   31  13  47 SW8       29.93F WCI  23
ROOSEVELT      SUNNY     28  19  69 E3        29.97F
VERNAL         CLOUDY    24  13  62 S3        29.95F

$$

UTZ013>016-019>022-027-252300-

SOUTHERN UTAH

CITY           SKY/WX    TMP DP  RH WIND       PRES   REMARKS
BRYCE CANYON   FLURRIES  26  17  68 N5        29.92F WCI  20
CEDAR CITY     PTSUNNY   39  12  33 W6        29.92F WCI  35
MILFORD        CLOUDY    38  21  50 NE10      29.95F WCI  31
ST GEORGE      PTCLDY    49  16  26 VRB3      29.99F
HANKSVILLE     MOSUNNY   41   5  22 CALM      29.96F
BLANDING       MOSUNNY   37   6  28 SW13      30.01F WCI  29

$$

REGIONAL REPORTS     COLORADO/ARIZONA

CITY           SKY/WX    TMP DP  RH WIND       PRES   REMARKS
CRAIG, CO      CLOUDY    24   8  50 W17G23    29.91F WCI  11
GRAND JUNCTION PTSUNNY   36  12  37 VRB3      29.95F
RIFLE, CO      CLOUDY    32  11  41 W15       29.92F WCI  22
MONTROSE, CO   CLOUDY    35   4  27 NW13      29.95F WCI  26
CORTEZ, CO     CLOUDY    37   5  26 W17       29.95F WCI  27
COLORADO CITY    N/A     45  18  33 W6        29.99F
PAGE, AZ       SUNNY     46   5  18 N7        29.95F
GRAND CANYON   PTSUNNY   39   8  27 W15G24    29.96F WCI  31
KINGMAN, AZ    PTSUNNY   55  -6   8 SW15G29   29.98F
FLAGSTAFF, AZ  SUNNY     40   4  22 W14G33    29.96F WCI  32

$$

REGIONAL REPORTS    NEVADA/IDAHO/WYOMING

CITY           SKY/WX    TMP DP  RH WIND       PRES   REMARKS
LAS VEGAS, NV  CLOUDY    51  16  24 E6        29.98F
ELY, NY        CLOUDY    28  18  66 NE3       29.96F
ELKO, NV       MOSUNNY   34  11  38 CALM      30.01F
POCATELLO, ID  MOSUNNY   25  15  66 W18       30.01F WCI  11
BURLEY, ID     MIX PCPN  32  14  47 W15       30.01F WCI  22
FORT BRIDGER,    N/A     21  11  67 W22G31    29.90F WCI   5
EVANSTON, WY   LGT SNOW  17  10  74 W20       29.88F WCI   1
ROCK SPRINGS,  CLOUDY    19   9  65 W23       29.84F WCI   2

$$



USA.gov is the U.S. government's official web portal to all federal, state and local government web resources and services.